Wind_Speed
42 43 43 43 44 43 44 44 44 43 42 43 43 42 41 41 42 41 41 39 39 39 39 39 39 39 38 37 36 35 34 33 32 32 32 32 32 32 31 31 32 32 32 32
44 43 42 42 43 43 44 45 44 44 44 45 44 44 43 43 43 42 42 41 40 39 39 39 40 40 39 39 38 37 36 35 34 33 32 32 33 33 33 32 33 33 33 33
44 42 41 42 42 42 44 45 45 45 45 46 46 46 45 44 44 43 42 41 41 41 41 41 40 40 40 40 39 38 37 36 35 34 33 33 33 33 33 33 34 34 34 34
42 41 41 42 42 42 44 44 45 46 46 45 46 47 44 44 45 44 43 42 41 42 42 42 41 41 41 41 40 39 38 38 37 36 35 34 34 33 34 34 34 34 34 34
39 39 40 41 41 42 43 43 44 45 46 46 45 47 45 44 45 44 43 42 42 42 42 42 42 42 41 41 41 41 40 39 38 38 37 36 35 35 35 35 34 34 34 34
38 38 39 41 41 42 42 42 44 45 45 47 45 46 46 45 44 43 43 43 42 42 42 42 43 43 42 41 41 41 41 41 40 39 38 38 37 36 36 35 36 35 35 35
38 38 39 39 41 42 42 42 42 44 46 48 45 48 49 45 44 44 44 44 43 43 43 43 43 43 42 42 41 41 41 41 41 40 40 39 38 38 37 36 36 36 36 36
37 39 39 39 40 41 42 42 43 43 45 46 45 47 47 45 45 45 44 44 44 44 43 43 44 43 43 43 42 41 41 41 41 41 41 40 40 39 38 38 37 37 37 37
36 38 39 39 40 40 41 42 42 43 44 45 46 46 46 45 45 45 45 44 44 44 44 44 44 44 43 43 43 43 42 42 43 43 42 42 41 40 39 39 39 39 39 39
34 37 38 38 40 41 40 41 41 43 43 42 43 44 45 45 45 45 45 44 45 45 45 45 45 44 44 44 44 44 44 43 44 44 44 43 43 42 41 41 41 40 40 40
33 35 36 38 39 39 39 39 41 43 44 44 42 42 42 43 43 44 44 43 44 45 45 45 45 45 45 44 45 45 45 44 45 45 44 44 43 43 42 42 42 41 41 41
34 35 36 36 38 39 40 40 40 41 43 43 44 42 40 42 43 43 42 42 42 42 43 44 45 45 45 45 46 46 46 46 45 46 45 45 45 44 44 44 43 43 42 42
33 33 34 35 36 39 40 40 40 41 42 43 44 44 41 43 43 43 42 42 42 42 42 42 43 44 45 46 46 46 47 47 47 46 46 46 46 46 46 45 45 45 44 43
33 33 34 35 36 36 39 40 41 41 42 42 42 41 40 42 43 43 43 43 43 43 43 43 43 43 44 45 45 46 46 46 47 47 47 47 46 46 46 46 46 45 45 45
32 33 34 35 35 35 37 39 40 41 42 43 42 40 38 39 41 42 42 43 43 43 43 43 42 42 43 43 44 44 45 45 46 46 47 47 47 47 47 46 46 46 45 45
29 30 31 33 33 34 36 37 39 40 41 42 44 43 41 40 39 40 41 42 43 43 43 43 43 43 43 43 44 44 45 45 45 46 46 46 46 47 47 47 47 47 47 46
25 25 26 27 29 31 33 35 36 38 40 41 41 42 42 43 40 38 39 40 41 42 42 43 44 44 44 44 43 44 44 45 45 46 46 46 47 47 48 49 49 48 47 47
22 23 24 24 26 29 30 32 34 36 37 39 39 38 38 40 41 39 38 38 38 39 40 41 41 42 43 44 44 44 44 44 45 46 46 46 46 47 47 48 48 48 48 48
20 22 23 24 25 27 27 28 30 32 34 35 37 38 37 37 39 39 38 38 38 38 40 40 41 41 41 43 43 44 44 44 45 45 45 46 46 47 47 48 48 49 49 49
18 19 20 21 22 24 25 25 27 29 31 33 35 36 35 36 37 37 37 37 38 38 38 39 40 41 42 42 43 44 44 44 44 44 45 46 46 46 47 47 48 48 49 49
18 18 18 19 21 22 22 23 25 27 28 30 33 34 34 34 34 35 35 36 36 36 36 37 37 38 40 41 43 43 44 45 45 45 46 46 46 46 46 46 47 47 47 48
16 16 17 18 19 19 19 21 23 24 25 27 29 30 31 31 31 32 32 33 34 34 34 35 35 36 37 39 41 42 43 44 44 45 45 45 46 46 46 46 46 47 47 48
15 15 16 16 18 18 19 20 21 21 23 24 26 27 29 30 30 30 30 30 31 32 32 32 33 34 34 35 37 38 40 41 43 44 44 44 45 45 45 45 45 46 46 47
15 15 16 16 17 17 17 18 19 20 21 22 24 25 27 29 29 29 30 30 30 30 31 30 30 31 32 33 34 35 37 38 40 42 42 42 42 43 43 44 44 44 44 45
16 17 17 16 16 17 18 18 18 18 19 20 21 22 24 26 28 29 30 30 29 30 31 31 30 30 31 31 33 33 34 36 37 38 39 40 41 41 42 42 42 41 41 42
15 16 17 16 16 17 17 18 18 17 18 18 19 21 22 23 25 27 28 29 29 29 30 31 30 31 31 31 32 33 33 34 35 35 36 37 38 39 39 39 39 39 39 39
Wind_Direction
259 257 256 255 254 254 252 251 251 251 250 249 248 247 246 245 245 245 245 244 244 245 244 245 245 246 246 247 247 248 250 250 251 252 252 253 253 254 254 252 252 253 255 254
258 257 257 255 253 252 250 250 250 250 250 250 249 248 247 246 244 244 245 244 244 245 244 244 245 246 246 247 247 248 249 250 251 251 251 252 253 254 254 254 253 255 256 256
258 257 254 252 250 249 249 249 249 250 250 250 250 248 247 247 245 244 244 243 244 245 245 245 246 246 246 247 247 248 249 250 250 250 250 252 253 254 255 255 256 257 257 257
256 253 251 249 249 248 248 248 248 248 249 250 251 250 246 246 245 245 244 244 245 245 245 245 245 247 247 247 247 247 248 249 249 249 250 251 253 254 255 255 255 256 257 258
256 253 250 248 247 247 247 247 247 247 248 249 248 251 248 246 245 245 246 245 245 246 245 245 245 246 247 248 248 248 248 248 249 250 250 251 252 253 254 255 256 257 258 257
256 253 250 248 246 246 247 246 247 246 246 247 247 250 249 247 247 246 246 246 246 246 246 246 246 246 246 247 248 248 248 248 248 249 250 251 252 253 254 256 257 258 258 257
256 252 250 249 247 245 245 245 246 245 245 248 248 249 249 250 249 248 246 246 246 246 246 246 246 245 246 247 248 248 247 248 247 249 250 251 251 252 253 255 256 258 258 258
259 253 250 248 247 246 245 244 243 245 247 248 248 249 250 251 250 249 248 248 247 246 246 246 246 246 247 247 248 248 248 248 248 249 250 251 251 252 253 254 256 257 258 258
260 257 252 248 245 245 245 244 242 243 246 247 248 249 250 250 250 250 249 249 249 248 247 247 248 247 247 248 247 247 247 248 248 249 250 251 252 251 252 254 256 258 258 258
260 258 253 250 246 244 244 243 241 239 242 246 247 249 250 250 251 250 250 249 248 248 248 248 247 247 247 247 247 247 247 248 248 249 249 250 251 252 253 254 256 257 258 258
258 257 253 248 245 244 243 242 242 241 242 245 246 247 250 251 251 251 251 249 248 247 247 247 246 246 247 247 246 246 247 248 248 249 250 250 251 252 253 254 255 256 257 258
258 256 252 249 247 244 243 242 242 241 241 243 244 245 248 249 249 250 250 249 248 247 246 246 246 247 247 247 247 247 248 248 249 250 250 251 251 252 253 254 255 256 257 257
258 257 254 250 248 244 242 240 241 240 240 241 243 244 245 248 248 248 248 248 248 247 247 247 247 247 248 248 247 247 248 248 249 250 250 251 251 252 253 254 255 255 256 257
256 255 254 252 250 248 243 240 239 239 239 240 242 244 244 246 247 248 249 249 248 248 248 248 247 247 247 247 247 247 248 248 249 249 250 251 251 252 253 254 255 255 256 257
257 255 254 253 251 247 244 242 240 240 241 243 241 241 243 246 248 248 248 248 249 249 249 248 247 247 246 245 246 246 247 248 249 249 250 251 252 252 252 253 254 255 256 257
258 256 255 252 251 248 244 242 242 242 242 244 243 243 242 244 247 248 248 248 249 250 249 248 247 246 245 245 245 245 247 248 249 250 250 251 251 252 252 253 254 255 256 258
258 257 257 255 253 249 245 243 243 243 243 244 244 243 244 243 244 245 247 248 249 250 250 248 247 247 246 246 246 246 246 247 248 249 250 250 251 252 253 254 255 256 257 258
264 259 258 256 254 252 249 249 248 245 242 241 241 241 241 243 244 244 246 247 248 249 248 248 247 247 246 246 246 247 247 247 249 250 250 250 252 253 253 254 255 256 257 258
268 264 258 256 256 255 253 252 249 247 245 243 242 241 242 243 245 246 246 247 248 247 246 246 246 246 246 246 246 246 247 248 249 250 251 252 253 254 255 255 256 257 258 259
271 269 262 258 256 256 257 256 253 250 249 245 244 242 242 243 245 246 247 247 248 248 246 245 245 246 246 245 246 247 248 249 250 251 251 252 253 254 255 256 257 257 258 259
271 268 263 259 259 261 259 259 257 253 252 249 247 244 242 243 245 245 247 246 245 246 246 246 246 248 248 248 248 249 249 250 250 251 251 252 253 254 255 256 257 258 259 259
273 273 269 263 262 262 261 262 259 256 254 251 248 246 245 244 243 244 244 244 244 243 244 245 246 248 249 249 249 250 250 250 250 251 251 252 254 255 256 257 258 259 259 260
274 275 271 267 264 262 263 265 263 259 255 251 249 248 247 245 245 243 243 244 242 240 243 244 245 247 249 249 249 250 251 251 250 251 252 253 254 255 256 258 259 260 260 260
272 271 271 271 268 263 262 264 265 263 259 254 251 249 248 246 245 245 246 245 244 243 243 245 246 248 249 249 250 251 251 252 252 253 253 254 255 256 257 258 259 260 260 260
273 271 271 271 269 263 259 260 261 262 260 257 253 250 247 246 247 248 248 248 248 246 244 246 249 250 250 251 252 252 253 253 254 254 254 254 255 257 257 258 258 259 259 260
271 269 269 269 268 264 259 256 258 261 260 257 255 251 249 250 250 249 249 248 249 249 246 247 249 251 252 254 254 254 254 254 255 255 256 256 256 257 258 258 259 259 260 260
Height
5651 5653 5655 5659 5662 5665 5667 5670 5673 5678 5680 5683 5686 5691 5695 5699 5702 5706 5710 5714 5718 5722 5725 5728 5731 5734 5738 5741 5744 5747 5749 5752 5754 5756 5759 5761 5763 5765 5767 5769 5771 5773 5774 5776
5637 5640 5646 5648 5650 5652 5655 5658 5662 5667 5670 5672 5676 5680 5684 5688 5693 5697 5701 5705 5709 5712 5715 5719 5722 5726 5729 5732 5736 5739 5741 5744 5746 5749 5751 5754 5756 5758 5760 5761 5764 5765 5767 5768
5624 5631 5633 5635 5637 5640 5643 5648 5652 5656 5659 5660 5664 5668 5673 5678 5682 5687 5691 5695 5699 5702 5706 5710 5714 5717 5721 5724 5727 5730 5733 5736 5738 5741 5743 5746 5748 5750 5752 5754 5756 5758 5759 5761
5611 5617 5619 5621 5625 5629 5632 5638 5641 5644 5646 5649 5653 5655 5663 5667 5671 5676 5681 5686 5690 5694 5697 5701 5705 5708 5711 5715 5718 5721 5724 5727 5730 5733 5735 5737 5740 5742 5745 5746 5748 5750 5752 5753
5600 5604 5607 5610 5615 5618 5622 5627 5630 5632 5635 5638 5641 5644 5651 5656 5661 5667 5672 5676 5680 5684 5687 5691 5695 5699 5702 5705 5708 5712 5715 5718 5721 5724 5727 5729 5732 5734 5736 5738 5740 5742 5744 5745
5589 5592 5595 5599 5604 5607 5611 5615 5618 5620 5622 5625 5632 5634 5638 5645 5652 5657 5662 5665 5669 5673 5677 5681 5685 5688 5692 5695 5698 5701 5705 5708 5711 5714 5718 5720 5723 5725 5728 5730 5732 5733 5735 5737
5577 5581 5583 5587 5591 5596 5599 5603 5606 5608 5609 5614 5622 5622 5628 5636 5641 5645 5650 5654 5659 5663 5666 5670 5674 5678 5682 5685 5689 5692 5695 5698 5702 5705 5708 5711 5714 5716 5719 5721 5723 5725 5727 5728
5565 5569 5573 5576 5580 5584 5588 5592 5596 5598 5601 5605 5610 5611 5619 5625 5629 5633 5639 5643 5647 5652 5656 5659 5663 5667 5671 5675 5678 5682 5685 5688 5692 5695 5699 5701 5704 5707 5709 5712 5714 5716 5718 5719
5554 5558 5561 5564 5569 5573 5577 5580 5586 5589 5591 5595 5598 5603 5609 5614 5617 5622 5627 5632 5636 5641 5645 5649 5652 5656 5660 5664 5668 5671 5675 5678 5682 5685 5688 5691 5694 5697 5700 5702 5705 5707 5709 5710
5543 5546 5551 5554 5558 5562 5566 5571 5574 5577 5580 5583 5588 5593 5598 5602 5607 5611 5616 5620 5625 5629 5634 5638 5642 5645 5649 5653 5657 5661 5664 5668 5671 5674 5678 5681 5683 5686 5689 5692 5695 5697 5699 5701
5534 5536 5540 5543 5547 5551 5555 5560 5563 5567 5571 5574 5578 5584 5587 5591 5595 5600 5604 5609 5614 5618 5622 5626 5630 5634 5638 5642 5646 5650 5653 5657 5660 5663 5667 5670 5673 5676 5679 5682 5684 5687 5689 5691
5525 5526 5529 5533 5537 5540 5543 5548 5552 5556 5559 5564 5568 5575 5577 5581 5584 5588 5593 5597 5602 5606 5610 5614 5619 5623 5627 5631 5635 5638 5642 5645 5649 5652 5655 5658 5662 5665 5668 5671 5673 5676 5678 5680
5515 5517 5519 5523 5528 5530 5532 5537 5541 5545 5548 5552 5557 5565 5566 5569 5573 5577 5582 5586 5590 5594 5599 5603 5607 5611 5615 5619 5623 5626 5630 5634 5637 5640 5644 5647 5651 5654 5657 5659 5662 5664 5667 5669
5505 5507 5510 5512 5514 5518 5522 5527 5531 5534 5537 5541 5547 5553 5556 5559 5563 5566 5570 5574 5578 5583 5587 5592 5596 5599 5603 5607 5611 5615 5618 5622 5625 5628 5632 5635 5639 5642 5645 5648 5650 5653 5655 5658
5496 5499 5500 5502 5505 5508 5511 5516 5520 5524 5527 5532 5537 5541 5545 5548 5552 5556 5559 5563 5567 5571 5575 5580 5584 5588 5592 5595 5599 5603 5606 5610 5613 5617 5620 5624 5627 5630 5633 5635 5638 5641 5644 5646
5488 5490 5492 5494 5497 5499 5502 5506 5510 5514 5518 5521 5525 5530 5534 5537 5541 5545 5548 5552 5556 5560 5564 5568 5572 5576 5580 5584 5588 5592 5595 5598 5602 5605 5608 5611 5614 5617 5620 5623 5626 5629 5631 5633
5482 5483 5484 5487 5489 5490 5493 5498 5501 5504 5507 5511 5514 5520 5524 5527 5531 5534 5537 5541 5544 5548 5552 5556 5560 5564 5568 5572 5576 5580 5583 5587 5590 5593 5596 5599 5602 5605 5608 5611 5613 5616 5618 5620
5475 5476 5477 5479 5482 5483 5488 5490 5492 5495 5498 5501 5504 5508 5512 5516 5520 5524 5527 5530 5533 5537 5540 5544 5548 5552 5556 5560 5564 5568 5571 5575 5578 5581 5584 5587 5590 5593 5595 5598 5600 5602 5605 5607
5470 5470 5471 5473 5474 5476 5480 5482 5484 5486 5489 5492 5495 5498 5502 5506 5510 5514 5517 5520 5523 5526 5529 5533 5536 5541 5544 5548 5552 5556 5559 5563 5566 5569 5572 5575 5577 5580 5582 5585 5587 5589 5591 5594
5465 5465 5466 5466 5468 5469 5474 5475 5476 5479 5480 5484 5486 5489 5493 5496 5500 5504 5507 5510 5513 5515 5518 5522 5525 5529 5533 5536 5540 5543 5547 5550 5554 5557 5560 5562 5565 5567 5569 5572 5574 5576 5578 5580
5460 5460 5461 5461 5462 5463 5467 5468 5470 5473 5474 5476 5477 5480 5484 5487 5491 5494 5497 5500 5503 5506 5509 5512 5515 5518 5521 5525 5528 5531 5534 5538 5541 5544 5547 5549 5552 5554 5557 5559 5561 5562 5564 5566
5456 5456 5456 5456 5457 5460 5460 5461 5463 5464 5466 5467 5470 5472 5475 5478 5481 5485 5488 5491 5493 5497 5499 5502 5505 5508 5510 5513 5516 5519 5522 5525 5528 5531 5534 5536 5539 5542 5544 5546 5548 5549 5551 5553
5451 5452 5451 5452 5454 5454 5454 5455 5456 5457 5458 5460 5462 5465 5467 5471 5474 5477 5479 5482 5485 5488 5491 5493 5496 5498 5501 5503 5505 5508 5510 5513 5516 5518 5521 5524 5526 5529 5531 5533 5534 5536 5537 5539
5447 5447 5447 5447 5448 5448 5449 5450 5450 5451 5452 5454 5456 5458 5460 5463 5466 5469 5471 5474 5477 5479 5482 5485 5487 5489 5491 5493 5495 5497 5500 5502 5504 5507 5509 5512 5514 5516 5518 5519 5521 5523 5524 5526
5442 5442 5443 5443 5443 5443 5444 5445 5445 5446 5446 5448 5449 5451 5453 5456 5458 5461 5464 5466 5469 5471 5474 5476 5479 5481 5483 5485 5486 5488 5490 5492 5494 5496 5498 5500 5502 5504 5506 5507 5509 5510 5512 5513
5438 5438 5438 5438 5439 5439 5439 5440 5441 5441 5442 5443 5444 5445 5447 5449 5451 5453 5456 5458 5461 5463 5466 5468 5470 5472 5474 5476 5478 5479 5481 5482 5484 5486 5488 5489 5491 5492 5494 5496 5497 5498 5500 5501